| time (UTC) | temp C | wind direction | speed KPH | gust KPH | rain 1hr cm | rain 24hr cm | rain mn cm | humidity % | barometer mb |
| 20260507134542 | 13 | 277 | 9.7 | 22.5 | 0.00 | 0.00 | 0.00 | 44 | 1017.9 |
| 20260507133056 | 13 | 278 | 9.7 | 24.1 | 0.00 | 0.00 | 0.00 | 46 | 1017.9 |
| 20260507131549 | 13 | 272 | 11.3 | 22.5 | 0.00 | 0.00 | 0.00 | 44 | 1017.8 |
| 20260507130054 | 13 | 259 | 9.7 | 25.7 | 0.00 | 0.00 | 0.00 | 42 | 1017.8 |
| 20260507124537 | 14 | 271 | 9.7 | 19.3 | 0.00 | 0.00 | 0.00 | 41 | 1017.7 |
| 20260507123043 | 14 | 0 | 6.4 | 19.3 | 0.00 | 0.00 | 0.00 | 41 | 1017.6 |
| 20260507121540 | 14 | 286 | 12.9 | 25.7 | 0.00 | 0.00 | 0.00 | 41 | 1017.7 |
| 20260507120052 | 15 | 232 | 8.0 | 20.9 | 0.00 | 0.00 | 0.00 | 41 | 1017.7 |
| 20260507114612 | 15 | 0 | 1.6 | 22.5 | 0.00 | 0.00 | 0.00 | 41 | 1017.6 |
| 20260507113038 | 15 | 0 | 11.3 | 22.5 | 0.00 | 0.00 | 0.00 | 40 | 1017.6 |
| 20260507111537 | 15 | 0 | 8.0 | 20.9 | 0.00 | 0.00 | 0.00 | 39 | 1017.8 |
| 20260507110043 | 14 | 294 | 3.2 | 20.9 | 0.00 | 0.00 | 0.00 | 39 | 1017.7 |
| 20260507104541 | 13 | 0 | 0.0 | 14.5 | 0.00 | 0.00 | 0.00 | 35 | 1017.6 |
| 20260507103040 | 15 | 0 | 1.6 | 9.7 | 0.00 | 0.00 | 0.00 | 36 | 1017.8 |
| 20260507101543 | 13 | 247 | 1.6 | 12.9 | 0.00 | 0.00 | 0.00 | 39 | 1017.6 |
| 20260507100039 | 14 | 0 | 0.0 | 11.3 | 0.00 | 0.00 | 0.00 | 37 | 1017.6 |
| 20260507094536 | 13 | 0 | 1.6 | 14.5 | 0.00 | 0.00 | 0.00 | 40 | 1017.8 |
| 20260507093047 | 13 | 261 | 0.0 | 14.5 | 0.00 | 0.00 | 0.00 | 42 | 1017.9 |
| 20260507091546 | 12 | 0 | 1.6 | 14.5 | 0.00 | 0.00 | 0.00 | 43 | 1017.6 |
| 20260507090041 | 13 | 0 | 0.0 | 16.1 | 0.00 | 0.00 | 0.00 | 42 | 1017.8 |
| 20260507084548 | 13 | 265 | 8.0 | 19.3 | 0.00 | 0.00 | 0.00 | 44 | 1017.6 |
| 20260507083044 | 12 | 280 | 1.6 | 16.1 | 0.00 | 0.00 | 0.00 | 46 | 1017.7 |
| 20260507081540 | 12 | 284 | 6.4 | 17.7 | 0.00 | 0.00 | 0.00 | 49 | 1017.6 |
| 20260507080044 | 11 | 271 | 0.0 | 17.7 | 0.00 | 0.00 | 0.00 | 52 | 1017.5 |
| 20260507074542 | 10 | 269 | 3.2 | 12.9 | 0.00 | 0.00 | 0.00 | 56 | 1017.5 |
| 20260507073036 | 8 | 0 | 0.0 | 6.4 | 0.00 | 0.00 | 0.00 | 63 | 1017.5 |
| 20260507071535 | 7 | 0 | 0.0 | 3.2 | 0.00 | 0.00 | 0.00 | 69 | 1017.4 |
| 20260507070042 | 6 | 0 | 0.0 | 3.2 | 0.00 | 0.00 | 0.00 | 73 | 1017.6 |
| 20260507064540 | 5 | 0 | 0.0 | 0.0 | 0.00 | 0.00 | 0.00 | 78 | 1017.4 |
| 20260507063038 | 5 | 0 | 0.0 | 0.0 | 0.00 | 0.00 | 0.00 | 78 | 1017.3 |
| 20260507061538 | 4 | 0 | 0.0 | 0.0 | 0.00 | 0.00 | 0.00 | 82 | 1017.3 |
| 20260507060036 | 3 | 0 | 0.0 | 0.0 | 0.00 | 0.00 | 0.00 | 84 | 1017.2 |
| 20260507054539 | 3 | 0 | 0.0 | 0.0 | 0.00 | 0.00 | 0.00 | 86 | 1017.3 |
| 20260507053040 | 2 | 0 | 0.0 | 0.0 | 0.00 | 0.00 | 0.00 | 89 | 1017.2 |
| 20260507051541 | 2 | 0 | 0.0 | 0.0 | 0.00 | 0.00 | 0.00 | 90 | 1017.2 |
| 20260507050038 | 1 | 0 | 0.0 | 0.0 | 0.00 | 0.00 | 0.00 | 90 | 1017.1 |
| 20260507044538 | 1 | 0 | 0.0 | 0.0 | 0.00 | 0.00 | 0.00 | 91 | 1017.0 |
| 20260507043044 | 0 | 0 | 0.0 | 0.0 | 0.00 | 0.00 | 0.00 | 92 | 1016.9 |
| 20260507041543 | 0 | 0 | 0.0 | 0.0 | 0.00 | 0.00 | 0.00 | 92 | 1016.7 |
| 20260507040043 | 0 | 0 | 0.0 | 0.0 | 0.00 | 0.00 | 0.00 | 91 | 1016.9 |
| 20260507034539 | 0 | 0 | 0.0 | 0.0 | 0.00 | 0.00 | 0.00 | 90 | 1016.7 |
| 20260507033038 | 0 | 0 | 0.0 | 0.0 | 0.00 | 0.00 | 0.00 | 90 | 1016.6 |
| 20260507031537 | 0 | 0 | 0.0 | 0.0 | 0.00 | 0.00 | 0.00 | 89 | 1016.7 |
| 20260507030044 | 0 | 0 | 0.0 | 0.0 | 0.00 | 0.00 | 0.00 | 89 | 1016.6 |
| 20260507024542 | 1 | 0 | 0.0 | 0.0 | 0.00 | 0.00 | 0.00 | 88 | 1016.5 |
| 20260507023046 | 1 | 0 | 0.0 | 0.0 | 0.00 | 0.00 | 0.00 | 89 | 1016.4 |
| 20260507021544 | 1 | 0 | 0.0 | 0.0 | 0.00 | 0.00 | 0.00 | 88 | 1016.3 |
| 20260507020059 | 1 | 0 | 0.0 | 0.0 | 0.00 | 0.00 | 0.00 | 89 | 1016.3 |
| 20260507014537 | 1 | 0 | 0.0 | 0.0 | 0.00 | 0.00 | 0.00 | 89 | 1016.3 |
| 20260507013051 | 1 | 0 | 0.0 | 0.0 | 0.00 | 0.00 | 0.00 | 86 | 1016.3 |
| 20260507011542 | 2 | 0 | 0.0 | 0.0 | 0.00 | 0.00 | 0.00 | 87 | 1016.3 |
| 20260507010042 | 2 | 0 | 0.0 | 0.0 | 0.00 | 0.00 | 0.00 | 87 | 1016.2 |
| 20260507004551 | 2 | 0 | 0.0 | 0.0 | 0.00 | 0.00 | 0.00 | 86 | 1016.3 |
| 20260507003050 | 2 | 0 | 0.0 | 0.0 | 0.00 | 0.00 | 0.00 | 85 | 1016.3 |
| 20260507001546 | 2 | 0 | 0.0 | 0.0 | 0.00 | 0.00 | 0.00 | 82 | 1016.2 |
| 20260507000041 | 2 | 0 | 0.0 | 0.0 | 0.00 | 0.00 | 0.00 | 82 | 1016.2 |
| 20260506234544 | 2 | 0 | 0.0 | 0.0 | 0.00 | 0.00 | 0.00 | 83 | 1016.2 |
| 20260506233044 | 2 | 0 | 0.0 | 0.0 | 0.00 | 0.00 | 0.00 | 81 | 1016.1 |
| 20260506231539 | 3 | 0 | 0.0 | 0.0 | 0.00 | 0.00 | 0.00 | 81 | 1016.3 |
| 20260506230045 | 3 | 0 | 0.0 | 0.0 | 0.00 | 0.00 | 0.00 | 79 | 1016.2 |
| 20260506224543 | 3 | 0 | 0.0 | 0.0 | 0.00 | 0.00 | 0.00 | 78 | 1015.9 |
| 20260506223045 | 3 | 0 | 0.0 | 11.3 | 0.00 | 0.00 | 0.00 | 78 | 1015.9 |
| 20260506221539 | 3 | 0 | 0.0 | 3.2 | 0.00 | 0.00 | 0.00 | 77 | 1015.7 |
| 20260506220039 | 3 | 0 | 0.0 | 4.8 | 0.00 | 0.00 | 0.00 | 76 | 1015.8 |
| 20260506214541 | 4 | 0 | 0.0 | 3.2 | 0.00 | 0.00 | 0.00 | 75 | 1015.7 |
| 20260506213058 | 4 | 0 | 0.0 | 6.4 | 0.00 | 0.00 | 0.00 | 75 | 1015.7 |
| 20260506211546 | 4 | 0 | 0.0 | 1.6 | 0.00 | 0.00 | 0.00 | 73 | 1015.8 |
| 20260506210041 | 4 | 0 | 0.0 | 6.4 | 0.00 | 0.00 | 0.00 | 72 | 1015.6 |
| 20260506204538 | 5 | 0 | 0.0 | 9.7 | 0.00 | 0.00 | 0.00 | 70 | 1015.7 |
| 20260506203038 | 5 | 0 | 0.0 | 8.0 | 0.00 | 0.00 | 0.00 | 69 | 1015.6 |
| 20260506201536 | 5 | 0 | 1.6 | 17.7 | 0.00 | 0.00 | 0.00 | 67 | 1015.6 |
| 20260506200043 | 5 | 0 | 1.6 | 14.5 | 0.00 | 0.00 | 0.00 | 66 | 1015.5 |
| 20260506194539 | 5 | 0 | 6.4 | 16.1 | 0.00 | 0.00 | 0.00 | 64 | 1015.5 |
| 20260506193039 | 6 | 269 | 6.4 | 24.1 | 0.00 | 0.00 | 0.00 | 62 | 1015.5 |
| 20260506191541 | 6 | 276 | 4.8 | 17.7 | 0.00 | 0.00 | 0.00 | 62 | 1015.4 |
| 20260506190037 | 6 | 276 | 6.4 | 27.4 | 0.00 | 0.00 | 0.00 | 62 | 1015.3 |
| 20260506184551 | 7 | 285 | 8.0 | 22.5 | 0.00 | 0.00 | 0.00 | 61 | 1015.1 |
| 20260506183053 | 7 | 0 | 8.0 | 24.1 | 0.00 | 0.00 | 0.00 | 63 | 1015.3 |
| 20260506181608 | 7 | 315 | 6.4 | 30.6 | 0.00 | 0.00 | 0.00 | 61 | 1015.1 |
| 20260506180042 | 7 | 267 | 11.3 | 30.6 | 0.00 | 0.00 | 0.00 | 61 | 1015.1 |
| 20260506174541 | 8 | 0 | 4.8 | 27.4 | 0.00 | 0.00 | 0.00 | 60 | 1015.1 |
| 20260506173056 | 8 | 250 | 9.7 | 35.4 | 0.00 | 0.00 | 0.00 | 60 | 1015.1 |
| 20260506171543 | 8 | 267 | 12.9 | 37.0 | 0.00 | 0.00 | 0.00 | 58 | 1015.0 |
| 20260506170042 | 8 | 284 | 14.5 | 32.2 | 0.00 | 0.00 | 0.00 | 58 | 1015.0 |
| 20260506164543 | 8 | 228 | 12.9 | 32.2 | 0.00 | 0.00 | 0.00 | 58 | 1014.9 |
| 20260506163040 | 8 | 275 | 17.7 | 37.0 | 0.00 | 0.00 | 0.00 | 57 | 1014.9 |
| 20260506161538 | 9 | 292 | 14.5 | 32.2 | 0.00 | 0.00 | 0.00 | 56 | 1014.9 |
| 20260506160037 | 10 | 291 | 14.5 | 35.4 | 0.00 | 0.00 | 0.00 | 53 | 1014.6 |
| 20260506154544 | 10 | 277 | 17.7 | 37.0 | 0.00 | 0.00 | 0.00 | 53 | 1014.9 |
| 20260506153059 | 10 | 266 | 20.9 | 35.4 | 0.00 | 0.00 | 0.00 | 51 | 1014.8 |
| 20260506151544 | 10 | 203 | 19.3 | 32.2 | 0.00 | 0.00 | 0.00 | 51 | 1014.9 |
| 20260506150046 | 11 | 277 | 16.1 | 30.6 | 0.00 | 0.00 | 0.00 | 54 | 1014.9 |
| 20260506144538 | 10 | 278 | 17.7 | 32.2 | 0.00 | 0.00 | 0.00 | 57 | 1015.0 |
| 20260506143040 | 11 | 281 | 12.9 | 32.2 | 0.00 | 0.00 | 0.00 | 55 | 1015.3 |
| 20260506141537 | 10 | 282 | 16.1 | 30.6 | 0.00 | 0.00 | 0.00 | 55 | 1015.2 |
| 20260506140039 | 10 | 0 | 11.3 | 35.4 | 0.00 | 0.00 | 0.00 | 57 | 1015.0 |